Printer-friendly version
Follow the MPC on Twitter Follow the MPC on Facebook The MPC blog
Minor Planet Center

MPEC 2010-B05 : 2010 BB

The following Minor Planet Electronic Circular may be linked-to from your own Web pages, but must not otherwise be redistributed electronically.

A form allowing access to any MPEC is at the bottom of this page.


Read MPEC 2010-B04 Read MPEC 2010-B06


M.P.E.C. 2010-B05                                Issued 2010 Jan. 17, 13:59 UT

     The Minor Planet Electronic Circulars contain information on unusual
         minor planets and routine data on comets.  They are published
   on behalf of Commission 20 of the International Astronomical Union by the
          Minor Planet Center, Smithsonian Astrophysical Observatory,
                          Cambridge, MA 02138, U.S.A.

             Prepared using the Tamkin Foundation Computer Network

                              MPC@CFA.HARVARD.EDU
          URL http://www.cfa.harvard.edu/iau/mpc.html  ISSN 1523-6714

                                    2010 BB

Observations:
     K10B00B* C2010 01 16.07816 01 19 46.84 +08 14 08.5          19.5 V EB005G96
     K10B00B  C2010 01 16.08403 01 19 48.86 +08 14 08.5          20.1 V EB005G96
     K10B00B  C2010 01 16.08990 01 19 50.98 +08 14 08.6          19.8 V EB005G96
     K10B00B  C2010 01 16.09581 01 19 53.11 +08 14 09.1          19.8 V EB005G96
     K10B00B  C2010 01 16.12260 01 20 02.76 +08 14 10.9          19.2 V EB005G96
     K10B00B  C2010 01 16.12594 01 20 03.98 +08 14 11.2          19.2 V EB005G96
     K10B00B  C2010 01 16.12933 01 20 05.20 +08 14 11.4          19.2 V EB005G96
     K10B00B  C2010 01 16.13269 01 20 06.39 +08 14 11.4          19.2 V EB005G96
     K10B00B  C2010 01 16.13417 01 20 06.85 +08 14 10.6          19.0 R EB005H01
     K10B00B  C2010 01 16.14220 01 20 09.74 +08 14 11.0          19.0 R EB005H01
     K10B00B  C2010 01 16.14497 01 20 10.76 +08 14 13.1          19.7 R EB005854
     K10B00B  C2010 01 16.15076 01 20 12.88 +08 14 11.6          19.1 R EB005H01
     K10B00B  C2010 01 16.15264 01 20 13.72 +08 14 12.5          20.0 R EB005854
     K10B00B  C2010 01 16.15811 01 20 15.53 +08 14 11.9          19.0 R EB005H01
     K10B00B  C2010 01 16.16031 01 20 16.38 +08 14 14.3          20.2 R EB005854
     K10B00B  C2010 01 16.17446 01 20 21.45 +08 14 12.7          19.0 R EB005H01
     K10B00B  C2010 01 16.68505 01 23 30.74 +08 14 39.6          19.5 R EB005461
     K10B00B  C2010 01 16.68744 01 23 31.59 +08 14 39.9                 EB005461
     K10B00B  C2010 01 16.68989 01 23 32.47 +08 14 39.9                 EB005461
     K10B00B  C2010 01 17.07605 01 25 52.79 +08 15 09.3          19.6 R EB005926
     K10B00B  C2010 01 17.07877 01 25 53.72 +08 15 09.9          19.3 R EB005926
     K10B00B  C2010 01 17.08148 01 25 54.69 +08 15 09.2          19.5 R EB005926

Observer details:
461 University of Szeged, Piszkesteto Stn. (Konkoly).  Observer K. Sarneczky.
    1.02-m Ritchey-Chretien + CCD.
854 Sabino Canyon Observatory, Tucson.  Observer J. E. McGaha.  0.36-m f/10.0
    Schmidt-Cassegrain + CCD.
926 Tenagra II Observatory.  Observers P. R. Holvorcem, M. Schwartz.  Measurer
    P. R. Holvorcem.  0.81-m f/7 Ritchey-Chretien + CCD.
G96 Mt. Lemmon Survey.  Observer R. A. Kowalski.  Measurers J. D. Ahern,
    E. C. Beshore, A. Boattini, G. J. Garradd, A. R. Gibbs, A. D. Grauer,
    R. E. Hill, R. A. Kowalski, S. M. Larson, R. H. McNaught.  1.5-m reflector
    + CCD.
H01 Magdalena Ridge Observatory, Socorro.  Observers W. H. Ryan, E. V. Ryan.
    Measurer W. H. Ryan.  2.4-m f/8.9 reflector + CCD.

Orbital elements:
2010 BB                                             PHA, Earth MOID = 0.0111 AU
Epoch 2010 Jan. 4.0 TT = JDT 2455200.5                  MPC
M 116.72561              (2000.0)            P               Q
n   1.31505641     Peri.   29.47746     +0.62906153     +0.75875029
a   0.8250998      Node   280.03574     -0.74259017     +0.52223605
e   0.2691362      Incl.    9.88562     -0.22987264     +0.38931671
P   0.75           H   19.8           G   0.15           U   9
Residuals in seconds of arc
100116 G96  0.9+  0.2+    100116 H01  0.2-  0.1-    100116 461  0.0   0.2-
100116 G96  0.4-  0.2-    100116 H01  0.4-  0.1-    100116 461  0.0   0.0
100116 G96  0.3-  0.5-    100116 854  1.1-  0.8+    100116 461  0.1+  0.2-
100116 G96  0.2-  0.3-    100116 H01  0.3+  0.0     100117 926  0.2+  0.0
100116 G96  0.1-  0.1-    100116 854  1.7+  0.2-    100117 926  0.2-  0.5+
100116 G96  0.1+  0.0     100116 H01  0.1+  0.1-    100117 926  0.1+  0.4-
100116 G96  0.1+  0.0     100116 854  0.0   1.2+
100116 G96  0.2-  0.2-    100116 H01  0.0   0.1-

Ephemeris:
2010 BB                  a,e,i = 0.83, 0.27, 10                  q = 0.6030
Date    TT    R. A. (2000) Decl.     Delta      r     Elong.  Phase     V
2010 01 14    01 06.61   +08 11.3    0.259    0.995    84.9    80.0    19.7
2010 01 24    02 04.45   +08 16.2    0.296    1.019    88.1    75.0    19.8
2010 02 03    02 50.35   +08 08.0    0.339    1.035    88.7    72.1    20.1
2010 02 13    03 27.99   +07 58.5    0.384    1.045    87.7    70.8    20.3
2010 02 23    04 00.32   +07 50.4    0.427    1.047    85.6    70.4    20.5
2010 03 05    04 29.15   +07 42.5    0.467    1.042    82.8    70.8    20.7
2010 03 15    04 55.61   +07 33.4    0.500    1.030    79.7    71.8    20.9
2010 03 25    05 20.41   +07 21.3    0.525    1.010    76.2    73.4    21.0
2010 04 04    05 43.72   +07 05.5    0.541    0.984    72.6    75.8    21.1
2010 04 14    06 05.52   +06 47.2    0.545    0.951    68.6    79.1    21.1
2010 04 24    06 25.41   +06 29.4    0.537    0.911    64.3    83.7    21.2

Timothy B. Spahr             (C) Copyright 2010 MPC           M.P.E.C. 2010-B05

Read MPEC 2010-B04 Read MPEC 2010-B06


MPEC number:

Enter an MPEC number in one of the following forms:

  • 1997-B01 (the full form)
  • J97B01 (the packed version of the full form)
  • B01 (the abbreviated form)

Valid HTML 4.01!